User: anonymous   Login
Location: El Bakhil
(32.7726°N, 5.5387°W)
Time: 23:48:11
(UTC+00:00)
Language:

Oscar 11 - Orbit

View from above orbital plane
View from above orbital plane
View from above satellite
View from above satellite

Ground track
Ground track

The orbit data is extracted from the following two-line orbital elements,

1 14781U 84021B   21213.45660936  .00000105  00000-0  18882-4 0  9991
2 14781  97.5938 211.0844 0007051 299.1369  60.9139 14.83308057992609
Epoch (UTC): 01 August 2021 10:57:31
Eccentricity: 0.0007051
inclination: 97.5938°
perigee height: 614 km
apogee height: 624 km
right ascension of ascending node: 211.0844°
argument of perigee: 299.1369°
revolutions per day: 14.83308057
mean anomaly at epoch: 60.9139°
orbit number at epoch: 99260

The dashed part of the orbit path shows where the satellite is in the earth's shadow,  

DLR